| time (UTC) | temp C | wind direction | speed KPH | gust KPH | rain 1hr cm | rain 24hr cm | rain mn cm | humidity % | barometer mb |
| 20260505121622 | 13 | 229 | 8.0 | 12.9 | 0.00 | 0.00 | 0.00 | 59 | 1008.2 |
| 20260505120614 | 13 | 221 | 6.4 | 14.5 | 0.00 | 0.00 | 0.00 | 60 | 1008.0 |
| 20260505115614 | 13 | 230 | 9.7 | 14.5 | 0.00 | 0.00 | 0.00 | 60 | 1007.9 |
| 20260505114624 | 13 | 222 | 9.7 | 14.5 | 0.00 | 0.00 | 0.00 | 60 | 1007.7 |
| 20260505113617 | 13 | 217 | 11.3 | 16.1 | 0.00 | 0.00 | 0.00 | 60 | 1007.7 |
| 20260505112629 | 13 | 220 | 6.4 | 16.1 | 0.00 | 0.00 | 0.00 | 60 | 1007.7 |
| 20260505111620 | 13 | 200 | 11.3 | 17.7 | 0.00 | 0.00 | 0.00 | 59 | 1007.6 |
| 20260505110614 | 13 | 215 | 11.3 | 17.7 | 0.00 | 0.00 | 0.00 | 60 | 1007.7 |
| 20260505101622 | 13 | 184 | 14.5 | 19.3 | 0.00 | 0.00 | 0.00 | 59 | 1007.5 |
| 20260505100613 | 14 | 213 | 14.5 | 20.9 | 0.00 | 0.00 | 0.00 | 59 | 1007.5 |
| 20260505095614 | 14 | 223 | 14.5 | 24.1 | 0.00 | 0.00 | 0.00 | 59 | 1007.4 |
| 20260505094627 | 14 | 221 | 16.1 | 22.5 | 0.00 | 0.00 | 0.00 | 60 | 1007.5 |
| 20260505093615 | 13 | 224 | 11.3 | 19.3 | 0.00 | 0.00 | 0.00 | 61 | 1007.5 |
| 20260505092618 | 13 | 219 | 11.3 | 16.1 | 0.00 | 0.00 | 0.00 | 62 | 1007.5 |
| 20260505091636 | 13 | 203 | 12.9 | 22.5 | 0.00 | 0.00 | 0.00 | 61 | 1007.4 |
| 20260505090624 | 14 | 218 | 16.1 | 22.5 | 0.00 | 0.00 | 0.00 | 61 | 1007.3 |
| 20260505085626 | 14 | 208 | 16.1 | 25.7 | 0.00 | 0.00 | 0.00 | 61 | 1007.4 |
| 20260505084614 | 14 | 211 | 16.1 | 25.7 | 0.00 | 0.00 | 0.00 | 62 | 1007.5 |
| 20260505083622 | 14 | 215 | 17.7 | 27.4 | 0.00 | 0.00 | 0.00 | 63 | 1007.6 |
| 20260505082615 | 13 | 224 | 17.7 | 25.7 | 0.00 | 0.00 | 0.00 | 64 | 1007.4 |
| 20260505081623 | 14 | 215 | 20.9 | 27.4 | 0.00 | 0.00 | 0.00 | 63 | 1007.5 |
| 20260505080612 | 13 | 214 | 16.1 | 22.5 | 0.00 | 0.00 | 0.00 | 63 | 1007.8 |
| 20260505075612 | 14 | 211 | 14.5 | 22.5 | 0.00 | 0.00 | 0.00 | 63 | 1007.8 |
| 20260505074643 | 14 | 198 | 14.5 | 24.1 | 0.00 | 0.00 | 0.00 | 63 | 1007.9 |
| 20260505073630 | 14 | 195 | 12.9 | 25.7 | 0.00 | 0.00 | 0.00 | 62 | 1007.9 |
| 20260505072618 | 15 | 192 | 14.5 | 22.5 | 0.00 | 0.00 | 0.00 | 61 | 1007.9 |
| 20260505071626 | 15 | 197 | 12.9 | 27.4 | 0.00 | 0.00 | 0.00 | 57 | 1007.9 |
| 20260505070617 | 16 | 224 | 19.3 | 27.4 | 0.00 | 0.00 | 0.00 | 55 | 1007.7 |
| 20260505065614 | 16 | 204 | 14.5 | 25.7 | 0.00 | 0.00 | 0.00 | 54 | 1007.7 |
| 20260505064623 | 16 | 232 | 11.3 | 24.1 | 0.00 | 0.00 | 0.00 | 53 | 1007.5 |
| 20260505063631 | 16 | 223 | 16.1 | 29.0 | 0.00 | 0.00 | 0.00 | 52 | 1007.4 |
| 20260505062624 | 16 | 217 | 19.3 | 32.2 | 0.00 | 0.00 | 0.00 | 51 | 1006.9 |
| 20260505061616 | 16 | 212 | 12.9 | 25.7 | 0.00 | 0.00 | 0.00 | 52 | 1007.0 |
| 20260505060627 | 16 | 193 | 16.1 | 24.1 | 0.00 | 0.00 | 0.00 | 51 | 1006.9 |
| 20260505055624 | 16 | 196 | 14.5 | 24.1 | 0.00 | 0.00 | 0.00 | 51 | 1006.8 |
| 20260505054612 | 16 | 192 | 12.9 | 29.0 | 0.00 | 0.00 | 0.00 | 50 | 1006.8 |
| 20260505053622 | 15 | 167 | 11.3 | 19.3 | 0.00 | 0.00 | 0.00 | 51 | 1006.8 |
| 20260505052629 | 15 | 183 | 9.7 | 14.5 | 0.00 | 0.00 | 0.00 | 52 | 1006.8 |
| 20260505051618 | 16 | 190 | 4.8 | 9.7 | 0.00 | 0.00 | 0.00 | 49 | 1006.7 |
| 20260505050624 | 16 | 182 | 3.2 | 6.4 | 0.00 | 0.00 | 0.00 | 47 | 1006.8 |
| 20260505041649 | 17 | 164 | 6.4 | 12.9 | 0.00 | 0.00 | 0.00 | 44 | 1006.4 |
| 20260505040637 | 17 | 194 | 11.3 | 14.5 | 0.00 | 0.00 | 0.00 | 42 | 1006.2 |
| 20260505035619 | 17 | 227 | 11.3 | 16.1 | 0.00 | 0.00 | 0.00 | 41 | 1006.2 |
| 20260505034648 | 16 | 200 | 8.0 | 11.3 | 0.00 | 0.00 | 0.00 | 47 | 1006.1 |
| 20260505033621 | 15 | 221 | 6.4 | 9.7 | 0.00 | 0.00 | 0.00 | 48 | 1006.0 |
| 20260505032631 | 16 | 165 | 4.8 | 8.0 | 0.00 | 0.00 | 0.00 | 46 | 1005.8 |
| 20260505031618 | 17 | 188 | 6.4 | 19.3 | 0.00 | 0.00 | 0.00 | 43 | 1005.7 |
| 20260505030628 | 18 | 220 | 16.1 | 27.4 | 0.00 | 0.00 | 0.00 | 35 | 1005.5 |
| 20260505025615 | 18 | 216 | 17.7 | 25.7 | 0.00 | 0.00 | 0.00 | 38 | 1005.3 |
| 20260505024625 | 18 | 213 | 12.9 | 22.5 | 0.00 | 0.00 | 0.00 | 40 | 1005.3 |
| 20260505023614 | 19 | 223 | 16.1 | 19.3 | 0.00 | 0.00 | 0.00 | 36 | 1005.3 |
| 20260505022642 | 19 | 213 | 14.5 | 19.3 | 0.00 | 0.00 | 0.00 | 35 | 1005.1 |
| 20260505021615 | 20 | 217 | 9.7 | 14.5 | 0.00 | 0.00 | 0.00 | 33 | 1005.0 |
| 20260505020626 | 20 | 222 | 9.7 | 12.9 | 0.00 | 0.00 | 0.00 | 32 | 1005.0 |
| 20260505015625 | 20 | 222 | 8.0 | 11.3 | 0.00 | 0.00 | 0.00 | 33 | 1004.9 |
| 20260505014635 | 20 | 216 | 8.0 | 12.9 | 0.00 | 0.00 | 0.00 | 34 | 1004.9 |
| 20260505013649 | 21 | 197 | 6.4 | 8.0 | 0.00 | 0.00 | 0.00 | 37 | 1004.7 |
| 20260505012618 | 21 | 192 | 4.8 | 9.7 | 0.00 | 0.00 | 0.00 | 36 | 1004.7 |
| 20260505011648 | 21 | 200 | 3.2 | 6.4 | 0.00 | 0.00 | 0.00 | 33 | 1004.7 |
| 20260505010616 | 21 | 212 | 4.8 | 11.3 | 0.00 | 0.00 | 0.00 | 29 | 1004.7 |
| 20260505005621 | 21 | 248 | 4.8 | 8.0 | 0.00 | 0.00 | 0.00 | 30 | 1004.8 |
| 20260505004613 | 21 | 250 | 4.8 | 8.0 | 0.00 | 0.00 | 0.00 | 28 | 1005.0 |
| 20260505003621 | 21 | 326 | 0.0 | 3.2 | 0.00 | 0.00 | 0.00 | 26 | 1005.0 |
| 20260505002630 | 21 | 326 | 0.0 | 6.4 | 0.00 | 0.00 | 0.00 | 27 | 1005.2 |
| 20260505001622 | 21 | 33 | 11.3 | 22.5 | 0.00 | 0.00 | 0.00 | 30 | 1005.2 |
| 20260505000632 | 21 | 360 | 19.3 | 29.0 | 0.00 | 0.00 | 0.00 | 29 | 1005.3 |
| 20260504235614 | 20 | 360 | 19.3 | 33.8 | 0.00 | 0.00 | 0.00 | 32 | 1005.6 |
| 20260504234625 | 20 | 346 | 22.5 | 33.8 | 0.00 | 0.00 | 0.00 | 30 | 1005.5 |
| 20260504233619 | 20 | 348 | 24.1 | 38.6 | 0.00 | 0.00 | 0.00 | 30 | 1005.5 |
| 20260504232625 | 20 | 339 | 29.0 | 41.8 | 0.00 | 0.00 | 0.00 | 31 | 1005.6 |
| 20260504231616 | 20 | 321 | 24.1 | 33.8 | 0.00 | 0.00 | 0.00 | 31 | 1005.8 |
| 20260504230627 | 20 | 317 | 20.9 | 33.8 | 0.00 | 0.00 | 0.00 | 33 | 1005.7 |
| 20260504225614 | 20 | 328 | 22.5 | 40.2 | 0.00 | 0.00 | 0.00 | 29 | 1005.7 |
| 20260504224626 | 20 | 334 | 20.9 | 29.0 | 0.00 | 0.00 | 0.00 | 30 | 1005.7 |
| 20260504223615 | 22 | 317 | 20.9 | 32.2 | 0.00 | 0.00 | 0.00 | 26 | 1005.9 |
| 20260504222625 | 24 | 161 | 6.4 | 17.7 | 0.00 | 0.00 | 0.00 | 25 | 1005.6 |
| 20260504221618 | 23 | 203 | 12.9 | 20.9 | 0.00 | 0.00 | 0.00 | 27 | 1005.4 |
| 20260504220630 | 24 | 158 | 14.5 | 24.1 | 0.00 | 0.00 | 0.00 | 25 | 1005.4 |
| 20260504215632 | 23 | 142 | 12.9 | 25.7 | 0.00 | 0.00 | 0.00 | 27 | 1005.6 |
| 20260504214624 | 23 | 152 | 14.5 | 22.5 | 0.00 | 0.00 | 0.00 | 29 | 1005.8 |
| 20260504213639 | 23 | 138 | 14.5 | 24.1 | 0.00 | 0.00 | 0.00 | 28 | 1005.8 |
| 20260504212629 | 23 | 167 | 11.3 | 25.7 | 0.00 | 0.00 | 0.00 | 27 | 1006.0 |
| 20260504211619 | 23 | 188 | 14.5 | 24.1 | 0.00 | 0.00 | 0.00 | 31 | 1006.2 |
| 20260504210650 | 23 | 192 | 9.7 | 20.9 | 0.00 | 0.00 | 0.00 | 24 | 1006.3 |
| 20260504205618 | 23 | 160 | 14.5 | 24.1 | 0.00 | 0.00 | 0.00 | 29 | 1006.5 |
| 20260504204629 | 23 | 154 | 11.3 | 24.1 | 0.00 | 0.00 | 0.00 | 27 | 1006.6 |
| 20260504203621 | 23 | 148 | 11.3 | 24.1 | 0.00 | 0.00 | 0.00 | 26 | 1006.6 |
| 20260504202651 | 23 | 190 | 12.9 | 19.3 | 0.00 | 0.00 | 0.00 | 27 | 1006.7 |
| 20260504201625 | 23 | 173 | 14.5 | 22.5 | 0.00 | 0.00 | 0.00 | 29 | 1006.8 |
| 20260504200618 | 22 | 184 | 11.3 | 19.3 | 0.00 | 0.00 | 0.00 | 32 | 1007.0 |
| 20260504195621 | 22 | 134 | 12.9 | 25.7 | 0.00 | 0.00 | 0.00 | 29 | 1007.2 |
| 20260504194619 | 22 | 153 | 12.9 | 20.9 | 0.00 | 0.00 | 0.00 | 29 | 1007.3 |
| 20260504193613 | 22 | 141 | 12.9 | 22.5 | 0.00 | 0.00 | 0.00 | 31 | 1007.4 |
| 20260504192626 | 22 | 157 | 9.7 | 25.7 | 0.00 | 0.00 | 0.00 | 31 | 1007.6 |
| 20260504191619 | 22 | 178 | 0.0 | 22.5 | 0.00 | 0.00 | 0.00 | 29 | 1007.7 |
| 20260504190614 | 22 | 189 | 12.9 | 17.7 | 0.00 | 0.00 | 0.00 | 31 | 1007.8 |
| 20260504185618 | 22 | 165 | 6.4 | 17.7 | 0.00 | 0.00 | 0.00 | 32 | 1008.0 |
| 20260504184629 | 22 | 149 | 6.4 | 19.3 | 0.00 | 0.00 | 0.00 | 29 | 1008.2 |
| 20260504183622 | 21 | 147 | 6.4 | 17.7 | 0.00 | 0.00 | 0.00 | 32 | 1008.5 |
| 20260504182618 | 21 | 163 | 9.7 | 17.7 | 0.00 | 0.00 | 0.00 | 33 | 1008.6 |
| 20260504181629 | 21 | 148 | 6.4 | 24.1 | 0.00 | 0.00 | 0.00 | 35 | 1008.7 |
| 20260504180624 | 20 | 230 | 6.4 | 20.9 | 0.00 | 0.00 | 0.00 | 38 | 1008.9 |
| 20260504175625 | 21 | 153 | 12.9 | 20.9 | 0.00 | 0.00 | 0.00 | 35 | 1008.9 |
| 20260504174619 | 21 | 214 | 12.9 | 19.3 | 0.00 | 0.00 | 0.00 | 33 | 1009.1 |
| 20260504173613 | 20 | 192 | 12.9 | 19.3 | 0.00 | 0.00 | 0.00 | 34 | 1009.1 |
| 20260504172646 | 20 | 160 | 12.9 | 20.9 | 0.00 | 0.00 | 0.00 | 33 | 1009.1 |
| 20260504171620 | 20 | 186 | 12.9 | 17.7 | 0.00 | 0.00 | 0.00 | 37 | 1009.2 |
| 20260504170618 | 20 | 140 | 11.3 | 16.1 | 0.00 | 0.00 | 0.00 | 39 | 1009.4 |
| 20260504150630 | 15 | 24 | 3.2 | 8.0 | 0.00 | 0.00 | 0.00 | 42 | 1009.7 |
| 20260504140618 | 11 | 341 | 4.8 | 9.7 | 0.00 | 0.00 | 0.00 | 45 | 1010.2 |
| 20260504130623 | 8 | 323 | 1.6 | 6.4 | 0.00 | 0.00 | 0.00 | 55 | 1009.9 |